User: anonymous   Login
Location: La Bastide
(43.1661°N, 1.2755°E)
Time: 23:17:50
(UTC+00:00)
Language:

Cosmos 1680 Rocket - Orbit

View from above orbital plane
View from above orbital plane
View from above satellite
View from above satellite

Ground track
Ground track

The orbit is defined by the following mean orbital elements,

1 16012U          26037.62598502 +.00000000 +00000-0 +12082-3 0 00004
2 16012  74.0579 102.7194 0016106 295.0576  64.8905 14.37733658    05
Epoch (UTC): 06 February 2026 15:01:25
Eccentricity: 0.0016106
inclination: 74.0579°
perigee height: 754 km
apogee height: 778 km
right ascension of ascending node: 102.7194°
argument of perigee: 295.0576°
revolutions per day: 14.37733658
mean anomaly at epoch: 64.8905°

The dashed part of the orbit path shows where the satellite is in the earth's shadow,  

DLR